EST,Max TemperatureF,Mean TemperatureF,Min TemperatureF,Max Dew PointF,MeanDew PointF,Min DewpointF,Max Humidity, Mean Humidity, Min Humidity, Max Sea Level PressureIn, Mean Sea Level PressureIn, Min Sea Level PressureIn, Max VisibilityMiles, Mean VisibilityMiles, Min VisibilityMiles, Max Wind SpeedMPH, Mean Wind SpeedMPH, Max Gust SpeedMPH,PrecipitationIn, CloudCover, Events, WindDirDegrees
2014-1-1,49,37,24,25,19,16,75,53,31,30.38,30.26,30.08,10,10,10,13,5,18,0.00,0,,166
2014-1-2,42,28,14,38,24,8,92,72,51,30.06,29.78,29.61,10,5,1,24,9,35,0.22,7,Rain-Snow,282
2014-1-3,15,10,5,7,1,-1,80,68,55,30.50,30.24,29.87,10,6,1,24,9,33,T,5,Snow,323
2014-1-4,39,26,13,20,7,-2,61,47,33,30.42,30.32,30.20,10,10,10,16,9,23,0.00,0,,139
2014-1-5,48,40,32,42,35,22,85,71,56,30.18,29.95,29.55,10,10,10,17,12,29,0.00,2,,149
2014-1-6,47,21,-6,43,10,-16,92,74,56,30.29,29.86,29.52,10,4,1,25,15,37,0.22,8,Rain-Snow,287
2014-1-7,6,-1,-9,-4,-12,-17,75,65,55,30.57,30.43,30.15,10,9,2,22,10,29,T,3,Snow,262
2014-1-8,33,18,2,13,4,-6,72,56,39,30.61,30.54,30.49,10,10,10,16,6,23,0.00,1,,220
2014-1-9,45,41,37,20,14,11,73,53,32,30.55,30.44,30.33,10,10,10,13,6,24,0.00,4,,151
2014-1-10,61,49,36,45,38,19,92,64,35,30.36,30.21,29.95,10,9,2,18,10,25,0.08,7,Rain,144
2014-1-11,57,45,33,51,45,29,77,64,50,29.96,29.66,29.45,10,8,2,25,13,32,0.48,7,Rain,227
2014-1-12,46,40,33,30,26,19,70,50,30,30.09,29.95,29.74,10,10,10,21,9,28,T,4,,264
2014-1-13,54,43,31,35,25,18,70,45,19,30.03,29.92,29.80,10,10,10,18,9,24,0.02,4,Rain,182
2014-1-14,46,39,32,40,35,25,89,69,49,29.94,29.82,29.75,10,9,2,22,7,28,0.15,6,Rain,248
2014-1-15,38,30,21,30,25,12,92,78,64,30.06,29.94,29.87,10,5,0,14,6,17,0.17,7,Fog-Snow,320
2014-1-16,33,25,17,22,13,10,74,58,41,30.08,29.97,29.86,10,10,2,21,7,27,T,6,Snow,243
2014-1-17,41,30,18,28,21,10,78,58,37,29.99,29.87,29.78,10,6,1,22,10,32,0.02,7,Snow,257
2014-1-18,27,20,12,19,9,3,81,69,57,30.09,29.95,29.84,10,7,1,18,9,25,0.01,7,Snow,269
2014-1-19,36,32,27,24,19,13,78,63,47,29.96,29.90,29.77,10,10,8,21,12,30,T,5,Snow,245
2014-1-20,49,39,28,24,21,17,69,52,34,29.89,29.85,29.80,10,10,10,24,10,30,0.00,0,,270
2014-1-21,35,23,11,28,19,4,92,78,64,29.98,29.74,29.59,10,3,0,21,9,28,0.35,8,Fog-Snow,345
2014-1-22,14,6,-2,4,-2,-9,80,63,46,30.15,30.04,29.84,10,7,2,17,8,23,2.82,6,Snow,298
2014-1-23,13,5,-3,9,2,-10,84,71,58,30.58,30.20,29.95,10,4,0,23,11,31,0.02,7,Snow,289
2014-1-24,19,6,-8,-5,-9,-12,83,56,28,30.66,30.46,30.08,10,9,4,17,9,23,T,3,Snow,228
2014-1-25,26,21,16,20,13,-9,88,57,25,30.05,29.63,29.49,10,3,0,37,14,52,0.06,7,Fog-Snow,257
2014-1-26,43,24,4,25,8,-7,69,48,26,29.96,29.84,29.74,10,10,10,22,10,34,0.00,2,,236
2014-1-27,42,25,7,28,12,-7,81,56,31,30.30,29.94,29.72,10,8,1,22,12,27,0.03,6,Snow,308
2014-1-28,10,6,1,1,-3,-8,86,68,50,30.42,30.26,30.10,10,6,1,15,5,19,0.04,7,Snow,356
2014-1-29,16,4,-8,-2,-7,-11,87,60,33,30.45,30.35,30.10,10,9,2,12,5,14,0.00,2,Snow,290
2014-1-30,32,15,-2,4,-3,-8,69,47,25,30.42,30.30,30.15,10,10,10,16,8,23,0.00,0,,145
2014-1-31,41,32,23,25,9,1,61,42,23,30.22,30.18,30.12,10,10,10,17,7,22,0.00,2,,222